EW2785 Weather Reports


time (UTC)temp
C
wind
direction
speed
KPH
gust
KPH
rain 1hr
cm
rain 24hr
cm
rain mn
cm
humidity
%
barometer
mb
20260506044554 13 61 0.0 0.0 0.15 0.25 0.05 91 1008.2
20260506043046 13 61 0.0 0.0 0.13 0.23 0.03 91 1008.1
20260506041550 14 61 0.0 1.6 0.13 0.23 0.03 91 1007.7
20260506040043 13 61 0.0 0.0 0.08 0.18 0.18 91 1007.9
20260506034538 13 42 0.0 1.6 0.00 0.10 0.10 90 1007.7
20260506033036 13 42 0.0 0.0 0.00 0.10 0.10 90 1007.5
20260506031548 13 42 0.0 0.0 0.00 0.10 0.10 90 1007.5
20260506030036 13 42 0.0 1.6 0.00 0.10 0.10 90 1007.2
20260506024536 13 42 0.0 3.2 0.00 0.10 0.10 89 1006.9
20260506023033 14 42 0.0 0.0 0.00 0.10 0.10 89 1007.0
20260506021532 14 42 0.0 0.0 0.00 0.10 0.10 89 1007.0
20260506020031 14 42 0.0 0.0 0.00 0.10 0.10 89 1007.2
20260506014530 14 42 0.0 0.0 0.00 0.10 0.10 88 1007.1
20260506013027 14 42 0.0 1.6 0.00 0.10 0.10 87 1006.7
20260506011528 14 42 0.0 0.0 0.00 0.10 0.10 86 1006.3
20260506010026 15 42 0.0 0.0 0.00 0.10 0.10 85 1006.0
20260506004531 15 42 0.0 0.0 0.00 0.10 0.10 85 1006.0
20260506003025 16 42 0.0 0.0 0.00 0.10 0.10 85 1005.9
20260506001524 16 42 0.0 0.0 0.00 0.10 0.10 83 1005.9
20260506000024 16 42 0.0 0.0 0.00 0.10 0.10 82 1005.8
20260505234552 16 42 0.0 4.8 0.00 0.10 0.10 81 1005.7
20260505233022 17 98 0.0 3.2 0.00 0.10 0.10 79 1006.1
20260505231523 17 107 0.0 4.8 0.00 0.10 0.10 77 1006.0
20260505230023 17 169 0.0 1.6 0.00 0.10 0.10 75 1006.0
20260505224529 17 169 0.0 0.0 0.00 0.10 0.10 75 1005.7
20260505223021 17 169 0.0 4.8 0.00 0.10 0.10 74 1005.2
20260505221521 17 119 1.6 4.8 0.00 0.10 0.10 73 1005.1
20260505220020 17 179 1.6 16.1 0.03 0.10 0.10 76 1005.5
20260505214523 17 163 1.6 6.4 0.03 0.10 0.10 82 1005.6
20260505213018 17 180 1.6 8.0 0.03 0.10 0.10 84 1005.3
20260505211518 17 199 0.0 4.8 0.03 0.10 0.10 84 1004.8
20260505210020 17 16 0.0 1.6 0.03 0.08 0.08 84 1004.1
20260505204524 17 16 1.6 8.0 0.08 0.08 0.08 83 1003.8
20260505203017 17 67 3.2 6.4 0.08 0.08 0.08 83 1005.1
20260505201517 17 178 0.0 9.7 0.08 0.08 0.08 76 1005.0
20260505200023 20 204 4.8 24.1 0.05 0.05 0.05 69 1004.6
20260505194514 24 233 3.2 30.6 0.00 0.00 0.00 44 1002.5
20260505193013 25 196 12.9 37.0 0.00 0.00 0.00 38 1001.9
20260505191513 25 109 6.4 16.1 0.00 0.00 0.00 39 1001.7
20260505190013 25 142 8.0 20.9 0.00 0.00 0.00 39 1001.6
20260505184521 25 159 8.0 32.2 0.00 0.00 0.00 38 1001.8
20260505183031 26 119 6.4 17.7 0.00 0.00 0.00 39 1002.0
20260505181508 26 184 6.4 22.5 0.00 0.00 0.00 38 1002.3
20260505180006 26 146 6.4 20.9 0.00 0.00 0.00 39 1002.3
20260505174504 26 169 12.9 38.6 0.00 0.00 0.00 39 1002.7
20260505173004 25 196 8.0 25.7 0.00 0.00 0.00 40 1002.9
20260505171600 25 230 8.0 32.2 0.00 0.00 0.00 40 1003.0
20260505170101 25 130 6.4 27.4 0.00 0.00 0.00 41 1003.4
20260505164618 25 188 4.8 20.9 0.00 0.00 0.00 42 1003.8
20260505163053 25 95 4.8 17.7 0.00 0.00 0.00 44 1003.8
20260505161553 24 117 6.4 22.5 0.00 0.00 0.00 46 1004.1
20260505153045 21 82 3.2 20.9 0.00 0.00 0.00 52 1004.5
20260505151536 20 123 4.8 19.3 0.00 0.00 0.00 55 1005.0
20260505124521 18 80 1.6 6.4 0.00 0.00 0.00 61 1006.0
20260505123017 17 126 0.0 4.8 0.00 0.00 0.00 61 1005.9
20260505121513 17 72 4.8 11.3 0.00 0.00 0.00 63 1005.9
20260505120009 15 134 1.6 6.4 0.00 0.00 0.00 72 1006.1
20260505114506 12 180 0.0 1.6 0.00 0.00 0.00 82 1006.1
20260505113059 11 149 0.0 1.6 0.00 0.00 0.00 87 1006.0
20260505111556 10 150 0.0 0.0 0.00 0.00 0.00 88 1006.2
20260505110104 10 150 0.0 0.0 0.00 0.00 0.00 87 1006.4
20260505101546 8 140 0.0 0.0 0.00 0.00 0.00 88 1005.8
20260505100047 8 140 0.0 1.6 0.00 0.00 0.00 88 1005.7
20260505094543 8 140 0.0 0.0 0.00 0.00 0.00 88 1005.7
20260505093041 7 213 0.0 1.6 0.00 0.00 0.00 88 1005.9
20260505091540 7 214 0.0 3.2 0.00 0.00 0.00 88 1005.8
20260505090041 7 209 0.0 4.8 0.00 0.00 0.00 88 1005.9
20260505084546 7 233 0.0 3.2 0.00 0.00 0.00 88 1006.0
20260505083038 6 287 0.0 3.2 0.00 0.00 0.00 88 1006.0
20260505081538 6 287 0.0 1.6 0.00 0.00 0.00 88 1006.1
20260505080038 6 287 0.0 3.2 0.00 0.00 0.00 87 1005.8
20260505074538 6 282 1.6 4.8 0.00 0.00 0.00 87 1006.0
20260505073042 6 288 0.0 3.2 0.00 0.00 0.00 87 1005.9
20260505071534 6 288 0.0 3.2 0.00 0.00 0.00 88 1006.1
20260505070040 6 295 0.0 6.4 0.00 0.00 0.00 88 1006.2
20260505064533 6 348 0.0 3.2 0.00 0.00 0.00 87 1006.2
20260505063030 6 35 0.0 4.8 0.00 0.00 0.00 87 1006.2
20260505061537 6 275 0.0 3.2 0.00 0.00 0.00 87 1006.2
20260505060027 6 250 0.0 4.8 0.00 0.00 0.00 86 1006.3
20260505054533 6 194 0.0 3.2 0.00 0.00 0.00 85 1006.3